Location: Unspecified
(0.0000°N, 0.0000°E)
Time: 18:33:24
(UTC+00:00)

AEROCUBE 2 - Visible Passes

Search period start: 18 May 2026 00:00
Search period end: 28 May 2026 00:00
Orbit: 621 x 723 km, 98.4° (Epoch: 17 May)

Date Brightness Start Highest point End Pass type
(mag) Time Alt. Az. Time Alt. Az. Time Alt. Az.
18 May ? 03:25:34 10° ENE 03:28:20 16° ESE 03:30:08 13° SE visible
18 May ? 05:01:13 10° NNW 05:05:06 27° WNW 05:08:23 13° SW visible
19 May ? 03:57:02 10° NNE 04:01:27 41° ESE 04:03:51 24° SSE visible
20 May ? 04:29:57 10° N 04:34:37 70° WNW 04:37:32 24° SSW visible
21 May ? 03:28:01 10° ENE 03:31:02 17° ESE 03:32:59 14° SE visible
21 May ? 05:03:58 10° NNW 05:07:49 25° WNW 05:11:14 12° SW visible
22 May ? 03:59:39 10° NNE 04:04:09 45° ESE 04:06:41 24° SSE visible
23 May ? 04:32:38 10° N 04:37:19 65° WNW 04:40:22 22° SSW visible
24 May ? 03:30:30 10° ENE 03:33:43 18° ESE 03:35:48 14° SE visible
24 May ? 05:06:43 10° NNW 05:10:30 24° WNW 05:14:03 11° SW visible
25 May ? 04:02:16 10° NNE 04:06:51 48° ESE 04:09:29 24° SSE visible
26 May ? 04:35:19 10° N 04:40:00 61° WNW 04:43:09 21° SSW visible
27 May ? 03:32:59 10° ENE 03:36:24 19° ESE 03:38:34 15° SE visible
27 May ? 05:09:29 10° NNW 05:13:11 23° WNW 05:16:50 10° SW visible
